Conway, MI

5:17 PM EDT on September 25, 2016 (GMT -0400)
Harbor Springs

Weather History for KMGN - November, 2012

Change the Weather History Date:

Wednesday, November 28, 2012

  Actual Average (KPLN) Record (KPLN)
Temperature  
Mean Temperature 30 °F -  
Max Temperature 32 °F 36 °F 61 °F (1990)
Min Temperature 28 °F 22 °F 0 °F (2013)
Degree Days  
Heating Degree Days 35    
Moisture  
Dew Point 22 °F    
Average Humidity 76    
Maximum Humidity 94    
Minimum Humidity 62    
Precipitation  
Precipitation 0.00 in - - ()
Sea Level Pressure  
Sea Level Pressure 30.14 in    
Wind  
Wind Speed 10 mph (West)    
Max Wind Speed 15 mph    
Max Gust Speed 24 mph    
Visibility 8 miles    
Events Snow    
Averages and records for this station are not official NWS values.
T = Trace of Precipitation, MM = Missing Value Source: NWS Daily Summary

Daily Weather History Graph

Daily Weather History Graph

Search for Another Location

Airport or City:

Trip Planner

Search our weather history database for the weather conditions in past years. The results will help you decide how hot, cold, wet, or windy it might be!

Date:

Astronomy

Nov. 28, 2012 Rise Set
Actual Time 7:56 AM EST 4:59 PM EST
Civil Twilight 7:22 AM EST 5:32 PM EST
Nautical Twilight 6:46 AM EST 6:09 PM EST
Astronomical Twilight 6:10 AM EST 6:44 PM EST
Moon 5:13 PM EST (11/28) 7:53 AM EST (11/28)
Length of Visible Light 10h 09m
Length of Day
9h 03m
Full, 100% of the Moon is Illuminated
Nov 28
Full
Dec 6
Last Quarter
Dec 13
New
Dec 20
First Quarter
Dec 28
Full

Hourly Weather History & Observations

Time (EST) Temp. Windchill Dew Point Humidity Pressure Visibility Wind Dir Wind Speed Gust Speed Precip Events Conditions
12:15 AM 32.9 °F 22.8 °F 30.6 °F 91% 30.04 in 1.8 mi WSW 15.0 mph 24.2 mph N/A Snow Light Snow
12:54 AM 32.0 °F 24.2 °F 30.4 °F 94% 30.04 in 1.5 mi West 9.2 mph 20.7 mph N/A Snow Light Snow
1:15 AM 30.6 °F 23.1 °F 28.4 °F 92% 30.04 in 1.2 mi West 8.1 mph - N/A Snow Light Snow
1:35 AM 30.6 °F 23.1 °F 28.6 °F 92% 30.04 in 1.2 mi West 8.1 mph - N/A Snow Light Snow
1:54 AM 30.4 °F 22.9 °F 28.4 °F 92% 30.04 in 1.8 mi West 8.1 mph - N/A Snow Light Snow
2:15 AM 30.6 °F 22.4 °F 28.4 °F 92% 30.04 in 1.5 mi WNW 9.2 mph - N/A Snow Light Snow
2:35 AM 30.6 °F 23.1 °F 27.9 °F 90% 30.05 in 2.0 mi WNW 8.1 mph - N/A Snow Light Snow
2:54 AM 30.6 °F 23.1 °F 26.8 °F 86% 30.06 in 5.0 mi WNW 8.1 mph - N/A Snow Light Snow
3:15 AM 30.6 °F 24.7 °F 26.8 °F 86% 30.06 in 4.0 mi NW 5.8 mph - N/A Snow Light Snow
3:34 AM 31.1 °F 25.4 °F 26.8 °F 84% 30.06 in 10.0 mi WNW 5.8 mph - N/A   Overcast
3:55 AM 31.8 °F 25.4 °F 26.6 °F 81% 30.06 in 10.0 mi West 6.9 mph 17.3 mph N/A   Overcast
4:15 AM 32.5 °F 26.2 °F 27.1 °F 80% 30.06 in 10.0 mi West 6.9 mph - N/A   Overcast
4:34 AM 32.9 °F 23.7 °F 26.4 °F 77% 30.06 in 10.0 mi WNW 12.7 mph 20.7 mph N/A   Overcast
4:55 AM 32.9 °F 25.3 °F 26.2 °F 76% 30.07 in 10.0 mi WNW 9.2 mph 16.1 mph N/A   Overcast
5:15 AM 31.1 °F 21.9 °F 24.6 °F 77% 30.08 in 10.0 mi NW 11.5 mph 17.3 mph N/A   Overcast
5:34 AM 30.6 °F 23.1 °F 24.3 °F 77% 30.09 in 10.0 mi NW 8.1 mph - N/A   Overcast
5:55 AM 30.4 °F 24.5 °F 24.4 °F 79% 30.09 in 10.0 mi NW 5.8 mph - N/A   Mostly Cloudy
6:15 AM 30.6 °F 23.8 °F 24.8 °F 79% 30.09 in 10.0 mi NW 6.9 mph - N/A Snow Light Snow
6:34 AM 30.6 °F 23.8 °F 24.8 °F 79% 30.11 in 10.0 mi WNW 6.9 mph - N/A Snow Light Snow
6:55 AM 30.6 °F 21.8 °F 24.6 °F 79% 30.11 in 5.0 mi WNW 10.4 mph - N/A Snow Light Snow
7:15 AM 29.7 °F 22.8 °F 24.8 °F 82% 30.12 in 7.0 mi WNW 6.9 mph - N/A Snow Light Snow
7:34 AM 28.4 °F 19.7 °F 23.9 °F 83% 30.13 in 7.0 mi WNW 9.2 mph - N/A Snow Light Snow
7:55 AM 28.4 °F 18.0 °F 22.5 °F 78% 30.13 in 10.0 mi NW 12.7 mph 19.6 mph N/A Snow Light Snow
8:15 AM 28.2 °F 20.2 °F 21.2 °F 75% 30.14 in 10.0 mi WNW 8.1 mph 19.6 mph N/A Snow Light Snow
8:34 AM 28.2 °F 18.3 °F 20.5 °F 73% 30.15 in 10.0 mi NW 11.5 mph 18.4 mph N/A Snow Light Snow
8:55 AM 28.2 °F 18.9 °F 20.5 °F 73% 30.16 in 7.0 mi WNW 10.4 mph - N/A Snow Light Snow
9:15 AM 28.2 °F 18.3 °F 21.2 °F 75% 30.17 in 10.0 mi WNW 11.5 mph - N/A Snow Light Snow
9:34 AM 28.0 °F 20.0 °F 22.1 °F 78% 30.18 in 2.5 mi WNW 8.1 mph 17.3 mph N/A Snow Light Snow
9:55 AM 28.0 °F 20.0 °F 23.4 °F 83% 30.19 in 1.0 mi NW 8.1 mph - N/A Snow Light Snow
10:15 AM 28.0 °F 19.3 °F 21.9 °F 78% 30.19 in 7.0 mi WNW 9.2 mph - N/A Snow Light Snow
10:34 AM 28.0 °F 20.8 °F 22.1 °F 78% 30.20 in 5.0 mi WNW 6.9 mph - N/A Snow Light Snow
10:55 AM 28.0 °F 18.6 °F 21.0 °F 75% 30.19 in 5.0 mi NW 10.4 mph 19.6 mph N/A Snow Light Snow
11:15 AM 28.0 °F 19.3 °F 20.1 °F 72% 30.20 in 10.0 mi WNW 9.2 mph - N/A Snow Light Snow
11:34 AM 28.2 °F 20.2 °F 19.0 °F 68% 30.20 in 7.0 mi West 8.1 mph 17.3 mph N/A Snow Light Snow
11:55 AM 28.0 °F 20.8 °F 20.5 °F 73% 30.20 in 10.0 mi WNW 6.9 mph - N/A Snow Light Snow
12:14 PM 28.0 °F 18.6 °F 19.9 °F 72% 30.20 in 7.0 mi WNW 10.4 mph 18.4 mph N/A Snow Light Snow
12:34 PM 28.0 °F 18.1 °F 20.1 °F 72% 30.20 in 7.0 mi West 11.5 mph 17.3 mph N/A Snow Light Snow
12:55 PM 28.0 °F 18.6 °F 19.6 °F 71% 30.20 in 7.0 mi WNW 10.4 mph - N/A Snow Light Snow
1:14 PM 28.0 °F 18.6 °F 19.6 °F 71% 30.19 in 10.0 mi WNW 10.4 mph 16.1 mph N/A   Overcast
1:35 PM 28.0 °F 19.3 °F 19.2 °F 70% 30.20 in 10.0 mi WNW 9.2 mph - N/A   Overcast
1:55 PM 28.0 °F 18.6 °F 19.4 °F 70% 30.19 in 10.0 mi WNW 10.4 mph 16.1 mph N/A   Overcast
2:14 PM 28.0 °F 19.3 °F 18.9 °F 68% 30.19 in 10.0 mi West 9.2 mph 17.3 mph N/A   Overcast
2:35 PM 28.0 °F 18.6 °F 18.5 °F 67% 30.19 in 10.0 mi West 10.4 mph 17.3 mph N/A   Overcast
2:55 PM 28.0 °F 19.3 °F 18.3 °F 67% 30.19 in 10.0 mi West 9.2 mph - N/A   Overcast
3:14 PM 28.0 °F 18.6 °F 18.5 °F 67% 30.19 in 10.0 mi West 10.4 mph 16.1 mph N/A   Overcast
3:35 PM 28.2 °F 20.2 °F 18.5 °F 67% 30.19 in 10.0 mi West 8.1 mph 18.4 mph N/A   Overcast
3:55 PM 28.0 °F 18.1 °F 18.1 °F 66% 30.19 in 10.0 mi West 11.5 mph 17.3 mph N/A   Overcast
4:14 PM 28.0 °F 19.3 °F 17.4 °F 64% 30.19 in 10.0 mi West 9.2 mph 19.6 mph N/A   Mostly Cloudy
4:35 PM 28.0 °F 19.3 °F 17.8 °F 65% 30.19 in 10.0 mi West 9.2 mph 20.7 mph N/A   Overcast
4:55 PM 28.0 °F 18.6 °F 16.7 °F 62% 30.19 in 10.0 mi West 10.4 mph 20.7 mph N/A   Mostly Cloudy
5:14 PM 28.2 °F 18.3 °F 17.6 °F 64% 30.19 in 10.0 mi West 11.5 mph 19.6 mph N/A   Mostly Cloudy
5:35 PM 28.4 °F 18.5 °F 17.6 °F 64% 30.19 in 10.0 mi West 11.5 mph 18.4 mph N/A   Mostly Cloudy
5:55 PM 29.7 °F 19.6 °F 19.9 °F 67% 30.18 in 10.0 mi WSW 12.7 mph 18.4 mph N/A   Overcast
6:14 PM 29.5 °F 21.8 °F 19.8 °F 67% 30.18 in 10.0 mi West 8.1 mph 16.1 mph N/A   Overcast
6:35 PM 30.6 °F 21.2 °F 20.8 °F 67% 30.18 in 10.0 mi SW 11.5 mph 18.4 mph N/A   Overcast
6:55 PM 29.5 °F 20.4 °F 21.0 °F 71% 30.18 in 10.0 mi SSW 10.4 mph - N/A   Overcast
7:14 PM 30.6 °F 21.8 °F 22.1 °F 71% 30.18 in 10.0 mi SW 10.4 mph 16.1 mph N/A   Overcast
7:35 PM 30.6 °F 21.2 °F 22.3 °F 71% 30.17 in 10.0 mi SW 11.5 mph 17.3 mph N/A   Overcast
7:55 PM 30.6 °F 20.7 °F 22.6 °F 72% 30.17 in 10.0 mi SSW 12.7 mph 19.6 mph N/A   Overcast
8:14 PM 30.6 °F 21.8 °F 22.8 °F 73% 30.16 in 10.0 mi SSW 10.4 mph 17.3 mph N/A   Mostly Cloudy
8:35 PM 30.6 °F 21.2 °F 23.0 °F 74% 30.17 in 10.0 mi SSW 11.5 mph 16.1 mph N/A   Overcast
8:54 PM 30.4 °F 20.5 °F 23.2 °F 75% 30.16 in 10.0 mi SSW 12.7 mph 18.4 mph N/A   Overcast
9:15 PM 30.7 °F 21.4 °F 23.7 °F 75% 30.16 in 10.0 mi SSW 11.5 mph 17.3 mph N/A   Overcast
9:35 PM 30.7 °F 23.3 °F 23.7 °F 75% 30.15 in 10.0 mi SSW 8.1 mph 18.4 mph N/A   Overcast
9:54 PM 29.5 °F 19.9 °F 22.8 °F 76% 30.14 in 10.0 mi South 11.5 mph 17.3 mph N/A   Overcast
10:15 PM 28.2 °F 18.3 °F 21.6 °F 76% 30.14 in 10.0 mi South 11.5 mph 17.3 mph N/A   Overcast
10:35 PM 28.2 °F 17.7 °F 21.7 °F 77% 30.13 in 10.0 mi South 12.7 mph 20.7 mph N/A   Mostly Cloudy
10:54 PM 28.9 °F 19.8 °F 22.3 °F 76% 30.13 in 10.0 mi South 10.4 mph 17.3 mph N/A   Mostly Cloudy
11:15 PM 28.4 °F 18.5 °F 21.9 °F 77% 30.12 in 10.0 mi South 11.5 mph 19.6 mph N/A   Mostly Cloudy
11:35 PM 28.4 °F 20.4 °F 21.9 °F 77% 30.12 in 10.0 mi South 8.1 mph - N/A   Overcast
11:54 PM 28.4 °F 20.4 °F 22.3 °F 78% 30.11 in 10.0 mi South 8.1 mph - N/A   Overcast